This demonstration page uses our WeatherBlox Daily Observations layout. Learn more.

38.89511, -77.03637

Hourly Observations for August 12, 2015

Temp ( °F °C ) Dew Point ( °F °C ) Humidity (%) Winds ( mph kmh ) Pressure ( in mb ) Visibility ( mi km ) Precip ( " mm )
12:52 am 00:52 Mostly Cloudy 76 24.4 68 20 77 77 VRB 5 7 29.86 1011 10 16.0934 0 0
1:52 am 01:52 Mostly Cloudy 77 25 64 17.8 64 64 NNW 8 13 29.87 1011 10 16.0934 0 0
2:52 am 02:52 Mostly Cloudy 77 25 61 16.1 58 58 NW 14 22 29.86 1011 10 16.0934 0 0
3:52 am 03:52 Mostly Clear 75 23.9 61 16.1 62 62 NW 13 20 29.86 1011 10 16.0934 0 0
4:52 am 04:52 Mostly Clear 73 22.8 61 16.1 66 66 NNW 10 17 29.88 1012 10 16.0934 0 0
5:52 am 05:52 Partly Cloudy 71 21.7 61 16.1 71 71 NNW 7 11 29.89 1012 10 16.0934 0 0
6:52 am 06:52 Mostly Sunny 71 21.7 61 16.1 71 71 NW 9 15 29.91 1013 10 16.0934 0 0
7:52 am 07:52 Mostly Sunny 73 22.8 61 16.1 66 66 NNW 10 17 29.93 1013 10 16.0934 0 0
8:52 am 08:52 Mostly Sunny 75 23.9 61 16.1 62 62 NNW 16 26 29.94 1014 10 16.0934 0 0
9:52 am 09:52 Mostly Sunny 77 25 61 16.1 58 58 NW 17 28 29.96 1014 10 16.0934 0 0
10:52 am 10:52 Partly Cloudy 79 26.1 62 16.7 56 56 NNW 10 17 29.96 1015 10 16.0934 0 0
11:52 am 11:52 Partly Cloudy 80 26.7 62 16.7 54 54 NW 14 22 29.96 1015 10 16.0934 0 0
12:52 pm 12:52 Partly Cloudy 82 27.8 60 15.6 47 47 NW 15 24 29.96 1014 10 16.0934 0 0
1:52 pm 13:52 Partly Cloudy 83 28.3 59 15 44 44 NNW 12 19 29.95 1014 10 16.0934 0 0
2:52 pm 14:52 Partly Cloudy 82 27.8 58 14.4 44 44 NW 9 15 29.94 1014 10 16.0934 0 0
3:52 pm 15:52 Mostly Cloudy 84 28.9 56 13.3 38 38 NNW 15 24 29.93 1014 10 16.0934 0 0
4:52 pm 16:52 Partly Cloudy 85 29.4 56 13.3 37 37 NNW 13 20 29.92 1013 10 16.0934 0 0
5:52 pm 17:52 Partly Cloudy 84 28.9 56 13.3 38 38 NNW 13 20 29.93 1013 10 16.0934 0 0
6:52 pm 18:52 Mostly Sunny 83 28.3 54 12.2 37 37 NNW 13 20 29.93 1014 10 16.0934 0 0
7:52 pm 19:52 Mostly Sunny 82 27.8 54 12.2 38 38 NW 9 15 29.95 1014 10 16.0934 0 0
8:52 pm 20:52 Mostly Clear 80 26.7 55 12.8 42 42 WNW 6 9 29.97 1015 10 16.0934 0 0
9:52 pm 21:52 Mostly Clear 79 26.1 56 13.3 45 45 WNW 5 7 29.97 1015 10 16.0934 0 0
10:52 pm 22:52 Mostly Clear 76 24.4 57 13.9 52 52 NNW 3 6 29.99 1016 10 16.0934 0 0
11:52 pm 23:52 Mostly Clear 74 23.3 58 14.4 57 57 N 7 11 30 1016 10 16.0934 0 0

Powered by AerisWeather